Theta_e
330 336 339 338 339 339 339 339 338 338 336 335 334 328 316 310 309 309 310 309 309 310 313 315 314 315 319 319 317 317 315 314 312 313 316 318 322 324 323 322 323 322 322 324 321 319 322 323 324 323 321 319 319 321 320 322 321 318 319 321 320 320 324 326 326 326 326 326 326 325 322 322 323 324 324 325 326 327 328 328 328 327 326 325 325
328 334 339 339 339 339 339 339 339 338 337 336 335 328 316 311 309 309 309 312 313 313 312 311 311 312 314 313 312 311 311 315 312 314 321 323 324 322 322 323 321 322 324 323 322 321 321 324 324 321 321 321 319 318 317 318 317 314 315 316 317 318 320 321 322 323 324 326 326 324 323 323 323 324 324 324 325 326 327 327 327 326 325 325 324
327 334 338 339 339 340 339 339 340 338 337 336 335 329 317 312 310 309 309 314 322 325 321 315 314 311 311 312 312 311 313 318 314 316 323 323 324 323 323 324 323 323 322 321 323 321 319 322 324 325 323 320 319 319 321 320 317 315 313 312 313 315 316 317 319 321 322 323 323 322 322 323 324 325 324 323 325 325 325 326 325 325 324 323 322
327 334 339 339 339 340 340 339 340 339 338 336 334 327 319 315 310 310 309 314 327 330 326 321 319 315 318 320 319 320 320 323 318 315 322 323 321 322 323 324 322 320 321 320 320 317 314 316 321 325 322 319 319 319 319 318 315 314 312 311 312 313 314 315 316 317 317 319 319 320 320 322 325 326 325 325 325 325 325 325 324 323 323 321 319
328 333 339 339 339 339 339 339 340 339 338 336 333 327 322 318 311 310 309 314 327 327 322 322 322 322 326 326 323 326 325 325 323 315 318 324 324 323 322 321 317 316 318 317 313 313 312 311 316 319 316 314 314 314 314 313 313 312 311 312 312 312 313 314 315 316 316 316 318 319 319 321 324 325 325 325 324 324 325 325 323 322 322 319 316
327 332 338 339 339 339 339 339 339 339 338 336 334 329 325 321 313 310 309 314 326 325 319 317 319 324 327 326 324 326 328 327 326 318 313 320 323 319 317 315 314 316 315 313 312 311 311 310 312 314 312 311 310 310 311 311 312 312 312 312 313 312 312 314 314 315 316 317 317 317 318 320 323 324 325 325 324 324 325 325 323 321 320 318 315
326 330 337 339 339 339 339 339 339 339 338 337 334 331 328 322 314 310 309 311 322 324 320 315 315 323 327 326 326 326 327 326 325 318 312 315 316 312 311 313 313 313 311 310 312 310 310 310 310 311 311 311 309 310 311 311 311 312 312 312 313 313 313 313 314 315 316 316 317 318 318 320 323 325 326 326 326 326 326 326 324 321 320 318 314
326 328 333 338 339 339 339 339 339 339 338 338 335 333 330 324 315 310 309 309 314 318 318 316 313 321 327 325 326 326 324 325 325 320 314 311 312 315 311 311 312 310 310 310 310 310 310 310 310 310 310 310 310 310 310 310 310 311 311 311 312 313 313 313 313 315 315 316 319 321 320 319 322 326 327 327 327 327 327 327 324 322 321 319 314
327 326 329 336 338 338 338 339 339 339 338 337 336 334 331 324 316 310 310 308 310 313 316 317 313 319 326 325 324 325 324 326 327 323 319 313 312 317 313 310 312 310 311 311 310 310 310 310 310 310 310 310 310 310 310 310 310 311 311 310 311 312 313 313 313 314 314 315 318 322 322 320 321 325 327 326 327 327 327 325 322 321 320 318 314
328 326 326 331 337 339 338 339 339 339 338 337 336 335 331 323 316 312 310 309 309 313 314 317 316 317 323 325 324 323 323 324 324 323 322 319 314 313 311 310 311 310 311 311 310 310 310 310 310 310 310 310 310 310 310 310 310 311 311 311 311 311 311 313 313 312 313 314 316 319 321 321 321 323 325 326 326 325 324 322 320 319 319 317 313
328 327 325 326 332 337 338 338 339 339 338 337 337 335 330 323 317 313 310 309 309 311 311 314 315 317 321 322 324 324 322 321 321 323 323 322 320 315 311 310 311 310 310 310 310 310 310 310 310 310 310 310 310 310 310 310 310 310 310 311 310 310 311 311 311 312 311 313 315 317 319 320 320 320 321 323 322 321 320 320 319 319 319 316 312
329 328 326 324 326 332 337 338 338 339 338 337 337 334 329 322 318 313 311 309 308 310 311 313 313 315 321 323 323 322 322 322 319 322 324 322 323 320 313 310 311 310 310 310 310 310 310 310 310 310 310 310 309 310 310 310 310 310 310 310 310 310 310 310 310 311 311 311 314 317 319 319 318 319 320 320 320 320 321 321 320 320 319 316 313
331 329 327 325 322 325 331 336 337 338 338 337 337 334 329 323 318 313 311 309 309 311 311 313 313 312 318 322 322 321 323 323 318 317 322 322 321 319 314 311 311 310 310 310 310 310 310 310 310 310 310 310 309 310 309 309 309 309 310 310 310 310 310 311 310 310 311 311 313 316 319 320 320 321 324 324 323 324 324 324 322 321 320 318 316
331 330 328 327 323 321 324 332 335 336 337 337 337 334 330 325 318 313 310 309 309 311 313 315 315 312 315 319 318 318 319 319 318 315 317 320 319 317 314 312 311 310 310 310 310 310 310 310 310 310 310 310 309 309 309 309 309 309 309 309 310 310 310 310 311 311 311 311 312 315 318 320 322 323 325 325 326 326 326 325 325 324 322 319 316
332 331 330 328 325 322 321 325 331 334 335 335 335 334 330 324 316 313 310 309 309 310 319 321 317 313 313 315 313 313 315 316 316 314 314 316 316 313 313 312 311 311 311 310 310 310 310 310 310 310 310 310 310 310 310 309 309 309 309 310 310 309 310 310 311 311 311 311 311 313 317 319 322 322 324 326 326 327 326 326 326 325 323 321 318
333 333 331 329 327 324 321 321 325 330 332 333 333 332 327 319 313 311 309 309 309 310 318 323 317 312 312 313 312 312 313 314 314 314 313 312 312 311 311 312 311 311 311 311 310 310 310 310 310 310 310 309 310 310 309 310 309 309 309 310 310 309 310 310 310 310 311 311 311 312 315 317 321 322 323 325 326 326 326 326 326 325 324 322 321
333 334 333 331 328 327 324 321 321 322 324 326 326 324 319 314 311 310 309 308 309 310 314 318 316 313 312 312 312 312 312 312 313 313 312 311 312 311 311 311 311 311 311 311 311 310 310 310 310 310 310 309 310 309 310 310 309 310 310 310 310 310 310 310 310 310 310 311 311 311 313 315 319 321 322 324 325 325 326 326 326 326 325 324 321
332 334 333 332 330 328 326 324 321 319 319 318 317 316 314 312 311 309 309 309 309 311 312 313 313 313 312 312 312 312 312 312 312 312 312 312 312 311 312 311 311 311 311 312 311 310 310 310 310 310 310 310 310 310 310 310 310 310 310 310 310 310 310 310 310 310 311 310 310 310 312 314 316 319 321 323 323 324 325 325 326 326 325 324 322
332 332 333 332 331 329 327 325 322 320 318 317 315 314 314 312 310 309 309 309 309 309 310 310 312 312 312 312 313 312 313 313 312 312 312 312 312 312 312 311 312 312 311 311 311 311 311 310 310 310 310 310 310 310 310 310 310 310 309 310 310 310 310 310 310 310 311 311 310 310 311 312 314 316 318 321 322 322 324 326 326 326 326 324 322
330 331 331 331 330 329 327 325 322 321 320 318 316 316 314 312 311 309 309 309 309 309 309 309 310 311 312 313 313 313 313 313 312 312 312 312 312 312 312 312 312 312 312 311 311 311 311 311 310 310 310 310 310 310 310 310 310 310 310 310 310 310 310 310 310 310 311 311 311 310 310 311 313 314 316 319 321 321 323 325 326 326 326 325 323
328 329 329 329 328 328 327 326 324 323 321 320 318 317 315 313 311 310 309 309 309 309 309 309 309 310 311 313 312 313 313 313 312 312 312 312 312 312 312 312 312 312 312 311 311 311 310 311 311 310 310 310 310 310 310 310 310 310 310 310 310 310 310 310 310 310 310 311 311 310 310 310 312 314 314 316 320 322 323 323 324 325 326 325 324
325 326 326 326 325 325 325 325 325 324 323 321 320 319 317 315 312 310 309 309 309 309 309 309 309 309 310 310 310 311 312 313 313 312 312 312 312 312 312 312 312 312 312 312 311 311 311 311 311 310 310 310 310 310 310 310 310 310 310 310 310 310 310 310 311 310 310 311 311 311 310 310 311 313 314 315 318 322 323 323 322 322 324 324 323
325 325 325 325 324 323 323 323 323 323 322 322 321 320 319 316 314 312 310 309 309 309 309 309 309 309 309 309 309 309 310 311 312 312 312 312 312 312 312 312 312 312 312 312 312 311 311 311 311 311 310 310 310 310 310 310 309 310 310 310 310 310 310 310 310 311 310 310 311 311 310 310 310 312 314 315 318 321 323 323 322 321 323 324 323
325 325 326 326 325 323 323 322 322 322 322 321 321 321 320 318 316 314 312 310 309 309 309 308 309 308 308 308 308 308 309 310 310 311 312 312 312 312 312 312 312 312 312 311 311 311 311 311 311 311 311 310 310 310 309 309 309 309 310 310 310 310 310 310 310 310 311 311 311 311 311 310 309 311 313 315 318 321 323 323 322 321 324 325 325
327 327 327 327 326 325 324 323 323 323 322 322 322 321 321 320 318 316 314 311 310 309 309 309 309 308 308 308 308 308 308 309 309 309 310 311 311 311 311 311 311 311 311 311 311 311 311 311 311 311 311 311 310 310 310 309 309 309 309 309 309 309 310 310 310 310 310 310 310 311 311 311 310 310 312 314 317 319 322 324 323 321 322 323 324
327 328 327 326 326 326 325 325 325 324 323 323 322 323 322 321 320 318 316 314 312 310 309 309 309 309 308 308 308 308 308 308 309 308 309 309 309 309 310 310 310 310 311 311 311 311 311 311 311 311 311 311 310 310 310 310 310 309 309 309 309 309 309 309 310 310 310 310 310 310 310 310 311 310 310 312 315 317 320 322 323 323 323 322 322
326 327 326 326 326 326 326 326 326 325 324 323 323 324 324 323 322 321 319 317 315 313 311 309 309 309 308 308 308 308 308 308 308 308 308 308 308 308 308 308 309 309 309 310 310 311 311 311 311 311 311 310 310 310 310 310 310 310 309 309 309 309 309 309 309 310 310 310 309 310 310 310 310 311 310 311 312 315 317 319 322 324 324 324 324
324 325 325 325 325 325 326 326 325 324 324 323 323 323 323 324 324 323 322 319 318 316 314 312 311 310 309 308 308 308 308 308 308 308 308 308 308 308 308 308 308 308 308 308 309 309 310 311 310 310 310 310 310 310 310 310 310 310 310 309 309 309 309 309 309 309 309 309 309 309 310 310 310 311 311 311 311 312 315 316 319 323 325 325 326
321 322 323 323 324 324 324 323 323 322 322 321 321 321 321 322 323 324 324 323 320 318 316 316 314 313 312 310 309 308 308 308 308 308 308 308 308 308 308 308 308 308 308 308 308 308 309 309 310 310 310 310 310 310 309 309 309 309 309 309 309 309 309 309 309 309 309 309 309 309 309 309 309 310 311 311 311 311 312 314 315 320 324 326 326
317 318 320 320 321 321 321 320 320 319 319 319 318 318 318 319 320 322 324 324 323 322 320 318 317 315 314 312 311 309 309 309 308 308 308 308 308 308 308 308 308 308 308 308 308 308 309 309 309 309 309 309 309 309 309 309 309 309 309 309 309 309 309 309 309 309 309 309 309 309 309 309 309 309 310 310 311 312 312 312 312 315 320 325 326
317 317 316 316 316 317 316 316 316 316 317 317 316 315 316 316 317 319 321 324 324 324 323 321 319 318 316 315 313 311 310 309 309 309 309 308 308 308 308 308 308 308 308 308 308 308 309 309 308 308 308 308 308 308 308 308 308 308 308 309 309 309 309 309 309 309 309 309 309 309 308 308 308 308 309 309 310 311 312 311 311 312 315 319 323
320 320 319 316 315 315 314 314 314 315 314 314 313 313 313 314 315 317 319 321 323 324 324 323 322 320 319 318 316 314 313 311 310 310 309 309 309 308 309 309 309 308 308 308 308 308 308 308 308 308 308 308 308 308 308 308 308 308 308 308 308 308 309 308 309 309 309 309 308 308 308 308 308 308 308 308 309 310 311 311 311 311 312 313 316
323 323 321 319 318 316 315 315 314 314 314 312 313 312 312 312 313 315 317 318 321 322 323 324 323 322 322 320 318 317 315 314 313 312 311 310 309 309 309 309 309 309 308 308 308 309 308 308 308 308 308 308 308 308 308 308 308 308 308 308 308 308 308 308 308 308 308 308 308 308 308 308 308 308 307 308 308 308 309 310 311 311 311 312 313
324 323 322 322 321 319 317 316 316 315 315 314 313 313 313 313 312 313 314 315 317 319 320 321 323 323 323 322 321 320 319 318 317 315 314 312 311 310 309 309 309 309 309 309 309 309 309 308 308 308 308 308 308 308 307 308 308 307 308 307 307 308 307 307 308 308 308 308 308 308 308 308 308 308 308 308 308 308 308 308 310 311 311 312 312
323 323 324 324 323 321 320 318 317 316 316 316 315 315 314 314 314 313 313 313 314 315 317 318 320 321 322 323 322 322 321 321 320 320 319 317 315 313 311 310 310 311 310 310 309 309 309 309 309 309 308 308 308 308 308 308 308 308 308 307 307 307 307 307 307 307 308 307 308 308 308 308 308 309 309 309 309 308 308 307 308 309 310 311 312
322 323 324 323 323 323 322 320 319 318 318 317 317 316 316 315 315 315 314 314 313 313 314 314 316 317 319 321 322 322 322 322 322 322 322 321 320 318 316 314 313 313 312 311 311 310 310 310 310 310 310 309 309 308 309 308 308 308 308 307 307 307 307 308 307 307 307 307 307 308 308 308 309 309 309 309 310 310 309 308 308 308 309 310 311
321 321 322 323 323 323 323 323 322 320 319 319 318 317 317 317 317 317 316 316 315 315 314 314 314 314 315 316 318 320 321 322 322 323 323 323 322 322 321 319 318 317 316 314 313 312 313 312 312 312 312 312 311 310 310 309 309 309 309 308 308 308 308 308 308 307 307 307 308 308 308 308 308 308 309 309 310 310 310 309 309 308 308 309 310
323 322 322 322 322 322 323 323 323 323 321 320 319 319 318 318 318 318 318 318 318 317 317 316 316 315 315 314 314 315 317 318 320 321 322 323 323 324 323 323 322 322 321 319 318 317 316 315 315 315 315 315 315 314 314 313 313 312 311 312 312 311 311 312 311 310 310 309 309 309 308 308 308 308 308 308 309 310 310 310 310 309 309 309 309
325 324 323 322 322 322 321 322 323 324 324 323 322 321 320 320 320 319 319 319 319 319 319 319 319 319 318 317 316 315 315 315 316 318 319 320 321 323 324 324 324 324 324 324 323 322 321 320 319 319 319 319 318 318 318 317 317 316 315 316 315 316 316 317 316 316 315 314 313 312 311 310 309 309 308 309 309 309 309 310 310 310 310 310 309
326 325 324 323 323 322 321 321 322 323 324 325 324 324 323 323 322 322 321 321 320 320 320 320 321 321 321 321 320 319 318 317 316 316 317 317 318 319 320 321 323 324 324 325 325 324 324 324 323 323 322 322 321 321 320 320 319 318 318 318 318 318 319 319 319 320 320 319 319 317 316 316 314 313 313 312 311 310 310 310 310 310 310 310 310
327 326 324 325 325 324 323 324 324 323 323 324 325 325 325 325 325 325 325 325 324 322 321 321 320 320 321 321 321 321 321 320 319 319 318 318 318 318 318 319 319 320 321 322 323 323 324 324 325 324 324 324 323 322 322 322 322 321 320 320 320 320 320 321 321 321 321 321 321 320 320 319 319 318 318 316 314 313 313 312 312 311 311 311 311
329 327 325 326 327 326 325 326 325 324 324 324 324 324 325 325 326 326 326 326 326 326 325 324 322 321 320 320 320 320 320 320 320 320 320 320 320 320 319 319 319 319 319 320 320 321 321 322 323 323 323 324 324 323 323 323 323 322 322 322 321 320 320 320 320 319 319 320 319 320 320 320 319 319 318 318 317 317 316 316 315 314 313 313 313
329 329 327 327 327 327 327 326 326 325 325 325 324 325 325 326 326 326 326 325 325 326 326 326 325 324 323 322 321 321 320 320 320 320 321 321 321 321 322 321 321 321 321 321 321 321 321 321 322 322 323 323 323 322 323 323 323 323 323 323 322 321 320 317 318 318 318 318 318 319 318 318 319 318 318 318 318 318 317 317 316 316 315 315 314
329 329 329 328 327 328 328 328 327 327 326 326 325 326 325 325 326 325 325 325 326 326 326 326 326 326 325 324 323 322 322 321 321 321 322 322 323 323 323 323 323 323 323 323 323 322 322 322 322 323 323 323 322 322 322 323 323 324 323 323 322 321 321 319 319 318 319 319 319 319 319 319 319 319 319 319 319 319 318 317 317 316 316 316 315
328 329 329 329 329 328 328 328 328 327 326 326 325 325 325 324 324 325 326 326 325 325 325 325 325 325 325 325 324 324 323 323 322 321 321 322 323 324 324 324 324 324 324 324 324 324 324 324 324 324 324 324 323 323 323 323 322 323 323 323 322 321 321 320 320 321 320 320 319 319 319 319 320 320 320 320 320 320 319 319 319 319 318 318 318
327 329 329 329 329 329 329 329 328 326 325 325 325 325 325 325 324 325 325 326 325 324 323 323 323 323 323 324 325 324 324 324 323 323 322 322 323 323 324 324 324 324 324 324 324 325 325 325 325 325 325 324 324 324 324 324 323 323 323 322 322 321 321 320 320 321 321 320 320 321 320 321 320 320 320 320 320 320 320 320 320 321 321 321 321
327 327 328 329 329 329 328 328 327 325 324 324 324 324 325 325 325 325 325 325 325 323 322 322 323 323 323 324 324 324 324 324 324 324 324 324 324 324 323 324 324 324 324 324 324 325 325 325 325 325 325 325 325 326 325 325 324 324 323 322 322 321 320 320 320 319 320 321 322 322 322 321 321 321 321 321 321 321 321 321 321 321 321 322 322
326 326 327 328 328 328 328 328 327 326 325 325 324 323 324 325 325 325 325 325 325 324 322 322 323 323 324 323 324 324 324 324 324 324 324 325 325 325 325 324 324 324 325 325 325 325 325 325 326 326 326 326 326 326 325 325 325 324 324 323 323 322 320 319 319 319 319 319 322 322 322 322 322 322 321 321 321 321 321 321 321 321 321 322 322
325 325 326 327 327 327 327 327 326 325 324 324 323 323 323 324 326 325 325 325 325 324 324 323 323 324 324 323 323 324 324 324 324 324 324 324 325 325 325 325 325 325 325 325 325 325 326 326 326 326 326 326 326 326 326 326 325 325 324 323 322 322 321 320 319 319 319 319 319 321 322 322 322 322 322 322 322 321 321 321 321 321 321 321 321
324 324 325 325 325 326 326 325 325 324 323 323 323 323 323 324 324 325 325 325 325 325 324 323 323 324 324 324 323 324 324 324 324 324 324 324 325 325 324 324 324 324 325 325 325 325 325 326 326 326 327 327 326 326 326 326 325 324 324 322 322 321 321 321 320 320 320 320 319 319 320 322 322 322 322 322 321 321 321 321 321 321 321 321 321
323 324 324 324 324 324 324 324 323 323 323 323 322 322 322 323 323 323 323 323 323 323 323 322 322 323 324 324 323 324 324 325 324 325 324 324 324 324 323 323 323 323 323 324 324 324 324 325 325 326 326 327 327 326 326 326 325 324 323 323 322 322 322 321 321 321 320 320 320 320 320 321 321 322 321 321 321 321 320 320 320 320 320 320 320
Wind_Speed
17 17 16 16 16 15 15 13 11 10 8 6 3 2 3 4 3 2 3 8 11 12 12 11 10 7 5 5 6 5 4 3 1 2 5 7 8 7 7 8 9 9 9 10 10 11 10 10 10 9 8 7 6 7 7 7 5 5 6 7 9 11 11 10 9 10 10 10 10 10 10 12 12 11 11 12 13 12 12 12 11 11 11 9 8
18 17 16 17 17 15 15 13 11 9 7 5 3 2 2 3 3 4 3 6 9 9 10 11 10 9 7 5 5 5 3 2 2 5 7 8 7 7 7 8 9 9 9 9 10 10 10 9 9 9 8 7 7 7 7 6 4 4 4 6 8 10 10 9 10 10 10 10 9 9 10 11 12 11 10 11 12 11 11 11 9 9 9 8 7
17 18 17 17 17 16 15 13 11 9 7 5 3 2 1 2 3 4 3 4 6 7 7 7 7 7 7 6 5 4 3 3 4 6 7 8 7 6 8 8 8 8 8 9 9 9 9 8 9 9 8 7 7 8 7 6 5 5 5 6 7 9 9 10 10 9 9 9 9 9 10 11 12 11 10 10 10 10 10 9 9 8 7 6 6
16 18 18 17 18 16 15 14 12 10 7 5 3 2 1 2 4 5 3 4 7 8 7 5 5 5 5 5 5 5 5 5 5 6 7 7 7 6 7 8 8 8 8 8 8 9 9 8 7 8 7 7 7 7 7 6 7 7 6 6 6 7 8 9 9 9 10 10 10 9 9 11 12 11 10 10 10 9 8 8 8 7 5 5 5
16 18 19 18 18 17 16 14 12 10 8 5 3 2 1 2 3 4 3 4 8 8 7 5 5 5 6 6 6 7 7 4 3 5 7 7 7 6 7 7 8 8 8 8 8 8 8 7 6 6 7 7 7 7 7 7 8 7 6 5 6 6 7 8 9 9 10 10 10 9 10 10 11 11 10 10 9 8 7 7 6 5 5 5 6
15 17 18 18 18 17 16 14 13 11 8 6 4 2 1 1 2 2 3 3 7 7 6 6 6 6 6 6 7 9 8 5 3 4 7 7 6 6 6 7 7 7 7 7 7 7 7 6 5 5 6 7 7 8 8 8 7 7 7 7 6 6 6 7 8 8 9 10 10 9 10 10 11 11 9 9 8 7 6 6 5 4 5 6 7
15 16 18 18 18 17 16 14 13 11 8 6 5 2 1 1 1 1 2 2 6 6 6 6 6 6 5 6 7 9 9 7 4 5 7 6 5 6 5 6 6 7 6 6 6 6 6 6 5 5 6 7 8 8 8 8 8 9 10 9 7 5 5 6 6 7 8 9 10 10 10 10 10 9 8 7 7 6 5 5 4 4 5 6 7
14 15 17 18 17 16 15 14 13 12 9 7 6 4 2 1 1 1 1 0 5 6 6 6 7 7 6 6 7 7 7 7 5 3 6 7 5 5 5 5 5 6 6 5 5 6 6 5 5 5 6 7 7 8 7 8 9 9 10 10 8 7 5 5 5 6 6 7 9 9 9 9 9 8 7 6 6 5 4 3 2 4 6 6 6
14 14 15 16 17 16 15 14 13 12 10 8 7 5 3 2 2 1 2 2 3 6 6 6 7 7 6 6 6 7 6 7 6 4 6 7 6 5 5 5 5 6 5 5 5 5 5 5 4 4 5 6 7 7 7 7 8 9 9 9 9 8 6 5 3 3 4 6 7 8 8 8 8 6 6 5 5 5 3 1 3 5 6 6 6
15 14 14 15 16 16 15 14 13 12 11 10 8 6 5 4 2 1 1 3 2 5 6 6 6 6 6 6 5 6 6 7 7 5 6 6 6 6 5 5 6 6 5 5 6 5 4 4 3 4 5 5 6 6 6 7 7 8 8 8 8 8 7 5 3 2 1 3 5 7 7 7 6 5 6 6 4 3 1 2 5 5 5 6 6
16 14 14 15 16 16 15 14 13 12 12 11 9 8 7 5 3 1 1 3 2 3 5 5 5 5 5 5 5 6 5 6 7 6 5 5 6 6 6 6 5 6 5 6 5 4 3 3 3 3 4 4 4 5 5 6 6 7 7 7 8 8 7 7 5 3 1 1 4 6 7 6 5 4 4 5 3 1 2 4 4 4 5 6 5
17 15 14 14 16 16 15 14 14 14 13 12 10 9 7 5 4 3 3 4 3 4 5 6 6 5 5 5 5 6 6 5 6 7 6 6 5 5 6 6 5 5 5 5 5 4 3 2 2 2 2 3 3 3 4 5 5 6 7 7 7 8 8 7 7 4 2 1 3 5 6 5 5 4 3 3 2 1 2 3 3 4 6 6 6
18 16 15 15 16 16 16 16 15 15 14 12 10 9 8 7 6 5 5 6 5 6 7 7 8 7 6 5 5 5 6 6 6 7 7 5 5 4 5 5 5 5 5 5 4 4 3 1 1 1 1 2 2 2 3 4 5 6 6 7 7 8 8 8 8 6 4 2 2 4 5 5 5 4 3 2 1 1 1 1 3 5 7 7 7
16 17 16 15 15 16 16 17 16 15 15 13 11 10 9 9 8 8 8 8 8 7 8 8 9 8 7 6 6 6 6 6 6 6 6 5 5 4 3 5 6 5 4 4 4 3 3 2 1 1 1 1 2 2 3 4 5 6 7 7 8 8 8 8 8 7 6 3 2 4 5 5 5 3 3 2 0 1 1 2 4 8 8 8 7
14 15 15 15 15 15 16 17 17 16 16 14 13 12 12 11 9 9 9 9 9 9 9 9 9 9 9 8 7 6 6 6 6 6 5 4 4 3 3 3 5 5 4 4 3 3 3 3 2 2 2 2 2 3 3 4 5 5 7 7 8 8 9 9 8 8 7 5 4 4 5 5 4 2 3 3 1 2 3 4 6 9 9 8 7
13 13 14 15 15 15 16 16 17 17 17 16 15 14 13 12 10 10 10 10 10 10 9 9 9 10 9 9 8 7 7 7 7 7 6 5 4 4 3 2 3 3 3 4 4 4 3 3 4 4 4 4 3 4 4 4 5 5 7 7 8 8 9 9 9 8 7 7 6 5 5 6 5 4 5 4 3 4 5 6 7 9 11 10 9
14 14 15 15 16 16 16 17 17 17 17 17 16 15 14 13 11 10 11 11 11 10 9 9 9 10 10 10 10 9 9 9 9 8 7 6 6 5 3 2 2 2 3 4 5 5 5 4 5 5 5 5 5 5 5 5 5 6 7 8 8 8 9 9 9 8 7 7 7 6 6 7 7 6 6 6 4 5 6 7 8 9 12 13 11
15 15 15 15 16 16 16 17 17 17 17 17 16 15 14 13 12 11 12 12 11 10 9 9 9 10 11 11 11 11 11 10 10 8 7 7 7 6 5 4 4 4 4 5 6 6 6 6 6 6 6 6 6 6 6 6 6 7 7 8 8 8 9 9 9 8 8 7 7 7 7 8 9 8 8 7 6 6 6 7 9 10 12 14 13
14 15 15 15 16 16 16 17 17 17 16 16 15 14 14 13 13 12 12 12 12 11 11 10 11 11 12 12 13 13 13 12 11 10 9 9 8 7 6 6 6 5 5 6 6 7 7 7 7 7 7 7 7 7 7 7 7 8 8 9 9 9 9 9 9 8 8 8 7 8 8 9 10 10 9 9 8 7 7 7 9 10 12 13 14
14 15 16 15 16 16 17 17 17 16 15 15 14 14 13 13 13 13 13 13 13 13 12 12 12 12 13 13 14 14 15 14 13 11 11 10 9 8 8 8 7 7 7 7 7 8 8 8 8 8 8 8 9 9 8 8 8 8 9 10 10 10 10 9 8 8 8 8 8 8 9 10 10 10 11 10 7 6 8 9 10 11 12 13 14
16 17 16 16 16 16 16 17 17 16 15 14 14 13 13 13 13 13 13 13 14 14 14 14 13 13 14 14 14 15 16 16 14 13 13 11 11 10 10 9 9 9 9 9 9 10 10 10 10 10 10 10 10 10 10 10 9 9 10 10 11 11 11 10 9 8 9 9 9 9 10 11 11 11 11 12 8 6 9 11 12 12 13 13 14
17 17 17 17 17 16 16 16 16 16 15 15 14 14 14 14 14 14 14 14 15 15 15 15 15 14 14 15 15 14 15 15 16 15 14 13 12 12 11 11 11 11 11 11 11 11 11 11 12 12 11 11 11 11 11 11 11 11 11 11 11 12 12 11 10 9 9 9 10 10 10 11 12 11 12 12 10 8 9 12 13 13 14 15 15
17 17 17 17 17 16 16 15 15 15 15 15 15 15 15 15 15 15 15 16 16 16 16 16 16 15 15 15 15 16 16 15 16 16 15 14 14 13 13 12 13 13 13 13 13 13 13 13 13 13 13 13 12 12 12 13 13 12 12 12 12 12 12 12 12 11 10 10 10 10 11 12 13 13 13 13 11 9 10 12 13 13 15 16 17
16 16 16 16 16 15 15 14 14 15 15 16 16 17 17 17 17 17 17 17 17 17 17 17 17 16 16 16 16 16 17 16 16 16 15 15 14 14 14 14 14 14 15 15 15 15 15 15 15 15 15 14 14 13 14 14 14 14 14 13 13 13 13 13 13 13 12 11 11 11 12 12 13 14 14 14 13 10 10 13 13 12 15 16 17
14 16 16 16 15 14 15 14 15 15 16 16 16 17 17 18 19 19 19 18 18 18 18 18 18 17 17 17 17 17 17 17 17 17 15 13 13 14 15 15 15 15 16 16 17 17 17 17 17 17 16 16 16 15 15 16 16 16 16 15 15 15 14 14 14 14 14 13 12 12 13 13 13 15 15 15 15 13 11 12 12 12 14 16 18
16 17 16 15 15 15 15 15 16 16 16 17 17 17 18 19 19 19 20 20 19 20 20 20 19 19 18 18 18 18 18 18 17 18 17 15 14 15 15 16 16 16 17 18 18 19 19 18 18 18 18 18 18 17 17 17 17 17 17 17 17 17 16 16 15 15 15 15 14 14 14 14 14 15 16 17 17 16 14 12 13 13 14 16 18
16 17 16 15 16 17 16 16 17 17 17 18 18 19 19 19 19 19 20 20 20 20 20 20 20 20 20 20 20 20 19 19 18 17 17 16 16 15 15 16 16 16 16 18 19 19 20 20 20 20 19 20 20 19 19 19 19 18 18 19 19 18 18 17 17 16 16 16 16 15 15 15 15 15 16 17 18 19 18 15 13 15 16 16 18
17 17 16 17 17 17 17 18 18 18 18 18 20 21 20 20 20 20 21 20 21 21 20 20 21 21 21 21 21 21 21 20 19 18 17 17 16 15 16 17 17 17 17 17 18 19 20 21 21 21 21 21 21 21 21 20 20 20 20 20 20 20 20 19 19 18 18 17 17 17 17 17 16 16 16 17 18 19 20 20 16 15 17 18 19
18 18 17 18 18 17 18 19 20 19 19 19 21 21 21 22 22 22 22 21 21 21 20 21 21 21 21 22 22 23 22 22 21 19 19 19 17 17 17 17 17 17 17 17 17 18 19 20 20 21 22 22 22 22 22 22 21 22 22 21 21 22 22 21 21 21 20 19 18 18 18 18 18 17 17 17 17 18 20 21 20 18 17 18 21
16 17 18 18 18 18 19 20 20 20 20 21 22 22 22 22 23 23 23 22 22 21 21 21 21 21 22 22 23 23 23 23 22 21 21 20 20 19 18 18 18 18 18 18 17 18 18 19 19 20 21 22 22 22 22 23 23 23 23 23 23 22 23 23 23 22 22 22 21 20 20 20 20 19 18 18 18 19 19 21 22 22 21 19 20
15 16 15 16 17 18 19 19 20 20 20 22 22 22 22 22 22 23 23 23 23 22 22 22 22 22 21 21 22 23 24 24 24 24 23 22 22 21 19 19 19 18 19 19 18 18 18 18 20 20 21 22 22 23 23 23 23 24 24 24 24 23 23 23 23 24 24 23 23 23 22 22 22 21 20 19 19 19 20 21 21 22 24 24 22
15 13 13 15 16 17 17 18 19 19 20 21 22 22 22 22 21 22 23 23 23 23 24 23 23 22 21 21 22 23 24 25 25 25 25 24 24 23 21 20 20 19 19 20 19 19 18 19 20 21 21 22 23 23 23 23 23 24 24 24 24 24 24 24 24 24 24 24 25 25 25 24 24 23 22 21 21 21 21 22 21 21 22 25 26
15 13 14 16 16 16 17 17 18 19 20 20 21 21 21 21 21 21 21 22 23 24 24 24 24 23 23 22 22 22 23 24 24 24 25 25 25 25 24 22 21 20 20 20 20 20 20 20 20 21 21 22 22 23 23 24 24 24 24 24 25 25 25 25 25 24 25 25 25 26 26 26 25 25 24 23 23 23 23 23 23 22 21 22 25
18 17 18 17 16 17 18 18 19 19 20 20 21 21 20 20 20 20 20 21 22 23 24 24 24 24 24 24 23 23 23 23 23 23 23 24 24 25 25 24 22 21 21 21 21 21 21 21 21 22 22 22 22 23 24 24 25 25 25 25 26 26 26 26 26 26 26 26 26 27 27 26 26 26 26 26 25 25 24 24 24 23 23 22 22
22 21 20 18 18 19 20 21 20 21 21 21 21 21 20 20 19 19 19 20 20 21 22 23 23 24 24 25 25 25 25 24 24 23 23 23 24 24 23 23 22 21 21 21 22 23 23 23 22 23 23 23 23 23 24 25 25 26 25 26 27 27 27 28 28 27 27 28 28 28 28 28 27 27 27 28 27 27 26 26 26 25 24 24 24
24 23 22 21 21 20 21 23 23 23 23 23 23 22 22 21 21 20 20 20 21 21 21 22 22 23 24 24 25 25 25 25 25 25 25 25 25 24 23 22 22 21 21 22 23 23 24 24 24 24 24 24 25 25 25 26 27 27 26 27 28 29 29 29 29 29 29 30 30 29 30 30 29 29 29 29 29 28 28 28 28 27 26 26 26
26 26 25 25 24 23 23 24 24 25 26 26 25 25 24 24 23 22 22 23 23 22 22 22 23 23 23 24 24 24 25 25 25 25 26 26 26 26 25 24 23 23 23 23 24 24 24 25 25 25 25 25 26 26 26 27 28 28 28 28 30 30 30 30 31 31 31 32 32 32 32 31 30 31 31 30 30 30 29 29 29 29 28 28 28
28 28 28 28 28 27 26 26 26 26 27 28 28 27 27 27 26 26 25 25 25 25 24 25 25 24 24 24 24 24 24 25 25 25 26 26 27 27 27 26 26 25 25 25 26 26 26 27 27 26 27 27 28 28 28 28 30 31 30 30 31 32 32 32 33 33 33 34 33 34 33 32 33 33 33 32 32 32 32 31 31 31 30 29 29
28 28 28 28 29 29 29 28 28 27 28 28 29 29 29 29 29 29 29 29 28 28 27 27 27 27 26 25 25 25 25 25 25 26 26 27 27 27 27 27 27 27 27 28 28 28 28 28 28 28 28 30 30 30 30 30 32 33 33 33 33 33 33 33 34 34 34 34 34 34 34 33 33 34 33 33 33 33 33 33 33 32 31 30 30
30 29 28 28 29 29 29 30 29 29 29 30 30 30 30 30 30 31 32 31 31 31 30 30 30 29 28 27 27 28 27 26 26 27 27 28 28 27 27 27 27 28 29 29 29 29 29 29 30 30 30 32 33 32 32 32 34 35 35 36 35 34 35 35 35 34 34 34 33 34 34 34 33 33 32 31 32 33 32 33 33 32 32 31 31
32 32 31 30 29 29 30 30 29 29 31 32 32 32 32 31 31 32 31 31 31 32 32 32 32 32 31 30 31 30 29 29 28 28 28 29 29 29 29 28 28 29 29 29 29 30 30 30 31 31 32 33 33 33 32 33 35 37 37 37 37 36 36 36 36 35 35 35 34 34 33 32 32 30 28 28 29 29 29 30 31 31 31 31 31
32 33 33 31 30 31 32 31 30 31 32 33 33 33 33 32 31 31 30 29 30 31 32 32 32 33 33 33 33 33 32 31 31 30 30 30 30 31 30 30 30 30 30 30 30 31 31 31 31 31 32 33 33 32 32 33 35 36 37 39 40 38 36 35 34 35 34 32 31 30 29 29 28 25 24 24 24 24 24 26 27 27 29 29 30
34 34 34 33 33 33 33 33 33 33 34 34 35 34 33 32 32 31 30 30 30 31 32 32 33 33 33 34 34 34 33 33 33 32 32 32 31 32 32 32 32 32 32 32 32 32 32 32 32 32 33 34 34 33 33 33 33 34 34 35 37 36 37 36 32 31 29 29 29 28 28 26 23 21 21 23 24 24 25 25 25 25 25 26 27
34 35 36 36 36 36 36 36 35 35 35 35 36 35 35 34 34 34 33 33 33 33 34 35 35 35 34 34 34 34 33 33 33 32 32 32 32 32 32 32 32 32 33 33 34 34 34 33 33 33 34 35 35 34 34 34 33 32 29 28 30 31 33 33 32 33 32 31 30 27 26 25 24 24 26 27 27 27 27 26 25 25 25 25 26
35 36 38 38 38 38 38 38 37 36 36 35 36 37 37 37 37 37 37 37 36 36 37 36 34 33 34 34 33 33 34 33 32 32 32 32 32 32 32 32 32 32 32 33 33 34 34 34 33 34 34 35 35 34 35 34 34 33 31 30 27 24 27 32 36 39 36 31 30 30 30 30 30 30 30 31 30 29 29 28 27 26 26 26 26
38 38 38 39 39 40 40 39 38 37 36 36 37 39 40 40 40 40 39 38 37 36 36 34 32 30 30 30 31 33 33 32 32 32 32 32 32 32 32 32 32 32 32 33 33 34 34 34 34 34 34 33 34 34 35 35 34 34 34 34 31 28 32 36 37 39 39 38 36 35 35 33 33 33 33 33 32 31 30 28 28 28 28 28 27
40 39 39 40 41 41 41 41 40 39 39 39 39 40 41 41 42 42 41 40 39 38 35 33 32 30 29 29 30 31 32 31 31 30 31 32 32 33 33 33 33 33 33 33 34 34 34 34 34 34 33 33 33 34 34 33 33 34 34 34 33 33 34 33 34 36 39 44 43 40 38 36 35 34 33 33 32 31 30 30 30 30 30 30 29
41 40 40 41 42 42 42 42 43 43 43 42 41 40 41 41 42 42 42 42 41 39 37 35 35 33 32 31 30 31 31 32 32 32 32 32 33 33 33 33 33 33 33 34 34 34 34 33 33 33 33 33 34 33 32 32 33 33 32 32 33 32 31 31 33 33 34 40 45 44 42 39 37 34 32 32 33 33 32 31 31 31 30 30 29
43 42 42 43 44 44 44 45 46 46 44 42 41 41 41 41 42 43 43 43 42 41 39 39 38 37 35 33 32 31 31 32 33 33 33 33 33 32 32 32 32 32 32 33 33 33 33 33 33 33 33 33 33 33 32 32 32 32 31 32 32 32 31 31 32 31 31 36 40 41 41 42 41 38 34 34 34 33 33 32 31 31 30 29 29
44 44 44 45 46 46 46 47 47 45 43 42 41 41 41 41 42 43 43 43 43 42 42 42 41 40 39 36 34 33 32 32 32 32 33 33 33 32 32 32 31 31 32 32 32 32 32 32 32 32 32 32 33 33 32 32 32 32 31 31 31 30 30 31 31 31 30 32 36 37 38 40 42 42 37 36 37 35 34 33 32 31 30 29 28
46 46 46 46 47 48 48 48 46 45 44 43 42 41 41 41 42 42 42 42 42 42 42 43 42 42 41 39 37 35 33 33 32 32 33 33 33 32 32 32 31 30 30 30 30 29 29 29 29 30 31 32 32 32 32 31 31 31 30 30 30 29 29 30 30 30 31 33 35 37 37 37 40 41 38 36 37 37 36 34 32 31 30 29 29
Wind_Direction
167 156 163 164 161 161 163 167 164 168 170 168 161 141 132 124 109 87 166 194 199 202 209 213 217 206 187 195 205 215 232 241 218 101 108 118 115 107 105 106 104 103 102 102 103 103 105 104 100 102 107 124 125 111 111 106 112 116 101 109 124 126 121 116 115 119 114 107 97 89 92 95 97 95 94 95 94 96 96 93 92 90 87 81 72
166 156 162 165 162 162 165 167 167 174 178 180 180 168 134 112 94 75 112 167 181 188 200 206 212 216 212 215 218 225 226 187 114 111 118 116 113 106 106 107 104 103 104 104 103 102 104 105 103 107 106 111 110 103 105 99 103 108 99 112 123 126 128 125 120 124 121 115 109 105 104 99 96 93 92 94 93 93 93 92 88 84 82 77 65
165 157 160 164 163 163 166 167 169 177 183 184 184 192 140 90 66 56 74 128 138 144 166 176 185 204 209 213 213 209 187 146 116 120 125 121 113 103 110 112 110 109 110 107 103 103 103 101 101 104 98 94 93 92 92 81 77 81 91 106 116 120 123 121 118 120 121 121 117 114 113 107 100 94 93 94 93 93 93 92 86 79 73 64 54
168 158 160 165 163 163 165 167 170 177 182 182 176 185 102 68 44 38 47 114 126 137 154 149 150 163 168 171 165 155 144 130 114 124 128 123 116 112 120 117 116 114 108 106 105 105 104 101 100 99 93 86 81 78 78 69 63 69 84 97 103 110 113 112 112 113 117 121 118 117 115 112 107 100 98 98 93 91 89 86 77 66 54 39 42
169 161 162 165 164 164 166 169 172 181 184 179 174 167 87 63 35 31 32 114 137 153 165 156 145 142 140 137 136 130 124 119 104 130 137 126 119 117 117 114 116 116 110 111 111 109 106 103 99 89 79 72 69 63 60 58 60 72 88 90 87 97 103 106 110 109 112 116 118 118 116 114 109 103 100 97 92 90 84 80 69 51 28 22 31
170 164 164 164 165 166 168 172 177 186 186 182 178 168 114 77 32 31 33 117 150 158 156 153 147 142 137 131 130 125 125 133 117 135 147 134 122 120 115 114 117 116 113 115 116 110 104 97 91 76 68 65 62 58 54 52 52 62 76 74 72 82 94 99 104 105 108 113 119 122 119 116 107 101 97 96 95 91 83 81 72 40 13 15 22
171 168 167 166 168 169 171 176 181 187 191 190 183 182 184 140 21 30 29 126 163 164 151 150 149 148 142 133 130 132 143 147 133 130 148 149 131 126 121 122 122 118 116 116 117 107 97 89 78 59 56 60 59 56 49 43 39 44 54 61 63 66 82 92 98 105 111 116 121 122 121 120 113 104 99 104 101 94 89 85 61 21 0 5 14
173 174 170 169 170 172 175 179 184 188 193 194 188 195 204 210 286 351 359 352 173 169 166 163 155 157 146 137 135 140 148 132 127 134 145 153 142 140 134 134 128 119 121 115 109 100 94 87 76 61 53 54 54 52 42 36 34 34 37 43 49 48 54 70 94 112 118 122 125 124 123 124 122 112 106 112 109 111 114 101 38 357 344 351 8
174 177 175 173 173 176 180 182 188 190 195 198 196 201 209 224 258 282 349 338 182 166 164 164 157 164 152 141 144 141 138 130 140 154 144 149 150 152 139 135 131 125 128 118 109 102 94 87 78 66 59 52 51 47 37 31 28 28 25 26 31 35 37 45 75 108 119 125 128 128 129 131 131 123 118 125 128 139 139 86 339 333 331 342 1
175 179 178 178 177 181 184 186 193 198 202 201 203 207 211 223 245 275 333 322 252 169 157 158 153 159 158 147 149 141 140 146 149 143 140 154 167 168 155 144 141 138 129 115 114 112 103 95 81 64 57 49 49 44 33 25 22 19 15 13 14 18 22 26 31 33 94 129 132 133 137 139 141 141 137 141 147 159 192 316 317 317 323 339 359
177 181 181 182 182 185 187 190 194 203 209 205 208 211 214 221 233 247 281 291 279 196 163 161 159 158 161 154 154 149 148 153 149 140 143 163 169 168 166 159 144 139 131 121 125 131 125 104 80 60 49 43 44 39 28 18 14 10 5 4 2 2 5 9 11 9 338 191 151 140 143 148 150 160 159 151 161 223 295 306 308 311 326 343 360
178 183 184 185 187 189 190 194 198 206 216 214 211 213 220 227 235 235 244 250 253 215 180 169 173 174 172 162 157 157 158 159 157 156 162 172 165 161 166 165 149 140 140 140 142 147 145 106 78 61 44 33 33 28 18 9 3 358 355 353 354 353 352 352 354 2 353 256 179 157 152 158 155 152 150 142 159 223 299 295 292 310 330 344 353
180 185 187 189 190 194 194 198 202 209 220 223 217 216 223 236 247 246 241 236 233 209 189 180 177 184 185 174 168 166 166 165 166 168 176 180 171 173 166 162 157 146 146 153 156 156 154 134 97 63 26 6 12 7 359 354 350 345 344 342 343 344 341 340 338 341 347 330 205 180 168 174 167 151 139 139 155 133 33 283 277 301 320 333 340
184 187 190 194 193 196 198 202 206 212 222 226 225 224 229 242 253 254 247 236 231 209 191 182 176 186 189 185 186 181 180 176 173 177 186 189 180 180 171 164 161 153 151 157 162 166 175 179 194 220 265 305 326 335 339 340 338 334 332 330 331 334 333 332 329 327 328 326 264 203 190 190 179 166 162 164 205 168 263 252 271 290 303 319 330
194 194 195 199 199 200 202 206 210 215 222 226 228 231 238 248 254 255 251 243 236 215 194 185 181 188 193 197 204 197 194 190 186 188 193 192 186 186 190 164 149 152 156 166 176 178 191 200 214 231 252 271 292 308 318 322 324 323 321 322 322 324 326 324 324 322 316 310 289 235 213 203 188 206 194 183 222 229 245 245 261 280 289 303 315
201 206 205 206 206 205 206 210 214 218 224 229 232 238 245 250 251 250 250 250 244 225 203 196 193 194 199 205 210 211 206 201 201 198 197 202 204 209 214 156 133 157 163 174 191 195 204 214 222 234 247 260 273 286 297 304 311 313 310 313 315 316 318 319 320 319 311 301 291 262 237 221 204 222 214 200 222 229 243 252 257 272 284 293 299
200 210 214 215 215 212 213 215 218 222 226 231 236 241 247 248 245 242 244 251 249 238 221 210 208 204 206 210 214 218 214 210 211 206 202 210 215 217 222 205 182 196 190 187 199 210 219 225 227 234 243 252 260 271 282 289 296 301 302 305 310 311 312 313 313 314 306 295 287 271 253 238 225 229 223 211 220 229 240 253 260 267 278 288 291
201 209 215 221 222 221 220 220 222 225 228 232 235 240 245 245 241 238 240 247 250 249 242 229 223 218 216 215 216 222 222 220 220 216 210 214 221 222 224 229 224 217 214 205 207 217 225 233 234 237 243 251 257 263 271 277 285 292 297 301 306 308 307 308 307 306 301 292 285 274 261 249 238 239 233 221 219 227 241 252 261 268 275 285 288
209 211 214 221 225 227 227 226 228 228 231 233 235 238 240 242 239 237 240 246 249 251 252 247 238 231 227 221 217 222 227 228 225 222 219 222 224 226 229 236 241 236 234 228 228 232 235 241 244 248 252 257 262 265 270 275 281 287 292 297 301 303 301 301 300 297 294 289 286 277 265 256 247 244 238 232 229 227 237 251 258 265 271 281 287
215 216 217 222 225 229 231 231 232 233 236 235 236 236 237 239 236 236 239 245 249 252 254 254 251 244 239 232 224 223 227 232 230 225 227 231 230 231 236 241 247 248 248 247 247 250 252 254 255 260 261 262 266 269 272 274 277 282 287 292 295 297 298 297 295 292 290 288 285 279 268 260 254 249 239 235 240 238 241 248 254 262 267 275 284
213 216 218 222 225 229 231 233 235 237 238 238 239 238 238 239 237 236 236 241 245 250 253 254 256 253 251 247 241 233 229 234 236 232 232 236 239 239 241 244 248 250 250 251 253 256 260 261 261 265 266 265 266 268 271 273 276 280 284 289 292 293 295 295 293 290 288 287 284 278 271 263 258 255 245 237 239 248 252 248 249 259 265 270 279
210 213 216 218 222 225 227 231 234 237 239 240 241 241 242 241 240 237 235 239 242 247 250 252 255 255 255 256 257 254 247 243 242 242 240 240 244 245 246 248 251 253 253 253 255 257 259 261 262 265 267 267 267 269 271 274 277 279 282 286 289 291 292 293 293 291 288 285 283 278 272 265 259 255 250 243 239 241 252 253 248 254 264 269 273
212 213 215 217 220 221 224 227 231 236 239 239 241 242 243 242 242 240 236 236 238 244 247 250 254 255 257 258 261 264 264 258 251 249 246 245 248 251 253 254 255 257 257 257 258 260 261 262 263 265 266 268 269 270 271 274 277 278 280 283 285 287 289 292 292 291 288 286 285 281 274 268 261 256 252 248 246 245 253 261 254 251 260 268 272
218 218 219 221 224 224 225 228 230 235 238 239 240 241 242 243 242 241 239 236 235 239 244 248 251 254 256 259 261 263 266 266 263 260 254 250 252 258 260 261 261 261 261 260 261 262 263 264 265 266 267 269 269 269 270 272 275 276 278 279 281 283 284 288 291 291 289 287 286 283 278 271 264 259 255 249 248 248 254 265 263 254 254 262 268
234 231 227 225 227 228 231 234 237 239 240 241 241 243 245 244 243 242 241 238 236 236 239 244 247 251 253 256 259 261 264 265 267 267 265 261 258 261 262 264 266 265 265 265 264 265 265 264 265 266 266 268 268 267 267 269 271 274 276 278 279 280 282 283 286 289 289 288 285 282 280 275 269 263 258 252 248 245 245 259 271 267 260 264 269
235 235 230 227 229 232 236 240 243 245 246 247 247 248 248 248 247 246 245 243 241 238 238 241 244 247 250 253 256 258 261 263 265 267 269 269 264 262 262 264 265 266 266 266 267 268 269 269 267 267 267 268 269 268 267 269 270 273 276 278 279 279 280 281 282 285 287 287 285 283 281 279 275 268 262 257 252 250 244 250 270 276 271 272 273
234 234 231 230 232 235 239 243 246 248 249 250 251 251 251 252 252 252 251 249 248 246 243 243 245 248 250 252 255 257 260 263 265 266 268 269 267 266 267 268 268 268 268 267 268 268 270 272 272 272 271 271 271 270 269 270 272 273 275 276 278 279 279 280 281 281 282 284 285 284 282 280 279 275 270 263 257 254 250 249 258 268 272 273 273
238 236 233 231 233 236 241 245 247 249 250 251 251 251 252 253 254 254 254 253 252 251 250 249 249 250 252 254 256 257 260 263 266 267 267 267 268 270 270 270 271 272 272 271 270 268 267 268 271 273 273 273 273 273 272 273 273 274 275 275 276 278 279 280 280 280 280 280 282 282 282 281 280 278 276 271 265 259 254 251 248 252 265 269 270
237 235 234 234 235 237 241 244 246 248 250 252 252 252 251 251 252 252 254 255 255 255 256 256 254 253 253 254 257 259 261 265 268 270 271 271 272 273 271 271 271 271 271 271 271 270 266 263 265 267 269 271 272 273 274 275 275 274 275 275 276 276 278 279 279 280 280 280 279 280 281 281 281 280 279 277 274 269 262 256 250 243 250 261 265
238 238 237 238 237 238 241 244 246 249 250 251 252 252 251 251 250 251 253 255 256 258 259 259 258 257 255 255 256 259 262 265 268 270 271 273 275 275 274 274 273 272 271 271 272 271 266 263 261 263 265 267 269 271 272 273 273 273 274 276 276 276 277 278 279 281 281 281 281 280 279 279 280 281 281 280 278 276 272 267 258 248 244 250 258
239 240 240 241 241 241 243 246 248 249 250 250 251 251 251 251 250 251 251 252 255 258 259 260 261 261 261 261 260 260 261 263 266 268 269 271 272 273 275 275 274 274 273 272 272 272 268 263 260 261 262 265 268 270 271 272 272 274 275 277 278 278 278 278 279 281 282 282 282 282 281 279 279 279 280 281 280 279 277 274 269 258 249 247 250
243 245 246 245 244 245 246 248 249 250 250 250 251 251 251 251 250 249 249 251 253 255 257 259 261 263 264 265 265 264 263 264 266 267 269 269 269 270 271 271 272 273 273 272 271 270 267 263 262 263 263 265 267 269 270 272 273 275 275 277 279 279 280 279 278 279 281 282 282 283 282 281 280 279 279 279 279 279 278 276 275 270 260 251 249
248 252 251 248 245 246 247 248 249 249 249 249 250 251 252 252 251 250 250 250 251 253 255 257 260 262 264 265 266 266 267 268 269 270 270 270 270 270 270 269 269 271 270 269 267 266 265 263 264 265 266 267 267 269 271 272 273 274 276 278 278 279 280 279 279 279 279 280 280 281 282 282 282 281 280 279 278 278 278 278 278 277 272 263 254
250 250 249 249 248 247 247 247 248 248 249 249 250 250 251 252 252 251 251 251 251 252 254 256 257 259 261 262 264 265 266 268 270 271 271 271 272 272 271 270 268 269 268 266 265 264 264 263 263 265 266 268 269 271 272 273 275 275 276 278 278 279 279 279 279 279 279 279 279 279 280 281 281 281 280 279 278 277 277 277 278 277 277 274 266
250 249 249 249 250 250 248 247 248 249 250 249 249 249 251 251 252 252 252 252 252 253 254 255 256 257 258 259 260 262 263 266 268 269 270 271 272 272 272 271 269 267 265 264 264 264 265 265 265 266 267 268 270 271 273 275 276 276 277 277 278 278 278 279 279 279 279 278 278 278 278 278 278 279 279 279 279 279 279 278 277 277 277 277 275
251 251 252 251 251 251 250 249 248 249 250 251 251 251 251 251 251 252 252 253 253 253 254 255 257 257 257 258 258 260 260 262 264 266 268 268 269 270 270 271 270 266 264 263 264 265 266 267 269 270 271 271 272 273 275 277 277 278 278 278 278 277 277 279 279 279 278 277 277 277 276 277 278 278 278 279 280 280 280 279 278 278 278 278 278
255 255 255 254 253 252 252 252 250 250 252 253 253 252 252 253 253 253 252 252 253 253 253 255 256 256 256 257 257 258 260 261 262 264 265 266 267 267 267 267 267 267 266 264 264 265 267 268 269 271 274 274 275 275 277 278 279 279 278 278 277 277 278 279 279 279 278 277 278 278 278 280 281 280 281 281 282 282 281 280 279 279 279 278 278
258 259 259 258 257 255 254 253 252 252 253 254 255 255 255 255 255 255 254 254 253 253 253 254 254 254 255 256 257 258 259 260 262 263 264 266 266 266 266 266 266 266 266 266 266 266 268 269 270 273 275 277 278 279 280 281 281 281 279 278 278 278 280 280 280 280 280 280 281 281 281 282 282 282 283 284 285 285 284 283 281 280 280 279 279
260 262 262 260 258 256 254 253 252 251 252 254 255 256 257 257 256 256 255 254 253 252 252 252 253 253 254 255 257 258 258 259 261 262 264 265 266 267 267 268 268 268 268 267 267 268 269 271 274 276 278 280 281 282 283 284 284 283 281 280 280 281 281 281 281 281 281 281 282 283 283 284 284 283 284 285 285 285 285 285 284 283 283 282 281
259 259 260 259 256 254 252 251 249 249 251 252 253 254 255 256 257 257 256 256 256 255 253 253 253 254 255 256 257 258 259 259 261 262 264 265 267 268 269 270 270 270 270 270 271 273 275 276 277 279 280 280 281 281 283 286 287 285 283 283 283 283 282 281 282 282 282 283 284 284 285 285 285 285 286 287 286 285 286 286 285 285 285 285 284
256 255 255 254 251 249 250 250 249 250 250 250 251 252 254 256 257 259 261 263 263 261 260 258 257 258 258 257 258 259 260 261 262 263 265 266 268 269 270 271 271 272 273 274 276 278 278 279 280 280 280 281 281 283 285 287 287 286 286 286 284 282 282 283 283 283 284 284 285 285 285 286 286 288 290 289 286 286 286 286 285 286 285 285 285
253 251 252 251 250 250 251 251 251 252 252 252 253 253 255 257 259 263 267 269 268 267 267 266 264 263 262 261 261 261 262 264 265 266 266 268 269 270 271 272 273 275 276 277 278 279 279 280 281 281 281 282 283 284 284 284 285 287 291 291 288 286 284 283 284 285 286 286 286 286 287 288 290 292 292 288 287 288 289 290 288 287 285 285 285
252 249 249 249 251 252 252 252 253 253 254 256 256 256 257 259 261 264 267 269 269 269 270 269 268 266 265 264 264 263 263 264 265 266 267 268 269 270 271 273 274 276 277 278 278 279 279 279 281 282 283 284 284 283 283 283 285 288 291 291 291 293 291 289 288 287 288 289 290 291 292 293 294 294 292 289 291 292 293 293 292 290 289 288 286
254 249 247 247 249 250 251 251 253 254 256 258 259 260 260 261 261 262 264 265 266 267 267 267 267 267 266 265 265 265 264 264 264 265 266 267 268 269 271 273 274 276 277 278 278 278 279 280 280 281 282 282 283 284 284 284 285 285 284 284 289 294 292 292 293 290 290 292 292 293 294 294 294 293 292 292 293 295 296 296 295 294 292 291 289
257 251 247 246 247 248 249 250 252 255 256 259 263 263 261 261 261 260 260 261 262 263 264 265 268 270 270 269 269 268 267 266 265 264 265 266 267 269 271 273 275 277 278 279 280 280 280 280 279 279 280 280 282 285 284 284 284 282 278 277 280 283 284 291 297 295 293 292 291 292 292 292 293 293 294 295 297 298 298 298 298 298 297 296 295
255 251 248 246 247 248 249 250 252 255 258 262 266 265 262 261 260 259 258 260 262 264 266 270 273 274 276 275 273 271 270 269 267 266 266 267 268 269 271 273 275 277 279 281 281 281 281 280 280 280 280 281 282 283 283 283 284 283 280 278 277 277 281 289 295 295 295 295 292 291 291 291 292 294 295 297 299 300 300 301 301 301 302 302 301
252 250 249 248 249 250 250 249 251 257 261 265 267 266 263 261 260 259 259 261 263 266 271 274 275 276 276 275 273 271 270 269 267 268 269 270 271 271 271 273 275 277 279 280 280 281 282 282 281 281 281 281 280 280 283 284 284 283 283 283 283 283 283 284 287 290 296 298 296 295 294 294 295 294 294 297 300 301 301 301 302 302 302 301 300
253 253 251 249 249 250 250 250 253 259 263 264 266 265 263 262 261 260 259 260 262 266 271 274 274 273 272 271 271 270 269 267 267 269 272 274 274 274 274 274 275 275 276 277 278 280 281 281 281 280 280 280 280 281 284 285 283 284 286 286 286 287 285 283 284 286 287 290 295 299 300 300 300 297 294 297 300 301 301 301 301 300 299 299 299
254 255 255 253 252 252 252 253 256 261 263 263 263 263 263 263 262 262 260 260 262 265 269 271 271 270 268 269 269 269 268 267 267 269 272 274 275 276 277 276 275 275 275 276 277 279 280 280 280 279 280 280 282 283 284 284 284 285 286 286 286 287 288 287 287 284 279 280 287 295 301 304 304 301 299 299 300 300 302 302 300 300 299 300 301
254 255 256 257 256 256 255 257 259 262 263 262 262 262 262 262 262 262 261 261 262 264 267 269 269 268 266 265 266 268 269 268 267 268 270 272 274 275 276 275 276 276 276 277 277 279 279 280 280 280 281 281 281 282 282 285 285 284 285 284 283 284 285 286 285 283 281 280 281 287 296 301 303 303 303 305 305 305 304 303 302 303 304 304 305
254 253 255 256 258 259 259 260 262 263 264 263 263 262 261 261 260 261 262 262 263 264 265 266 267 266 265 264 265 268 270 270 269 268 269 271 272 273 273 274 275 276 276 278 279 280 281 281 281 280 280 279 279 280 282 284 285 284 284 282 282 283 285 285 286 287 286 284 284 285 291 295 298 300 303 306 307 307 306 306 305 306 308 309 311